Wind_Gust
23 27 25 20 19 21 21 22 22 21 21 21 22 22 22 22 22 23 22 22 21 21 20 20 20 20 20 20 20 19 19 18 18 18 17 18 19 20 19 19 19 20 21 21 21 21 21 21 21 20 21 22 23 23 23 24 25 25 26 23 22 23 21 21 20 20 19 19 18 18 19 19 21 21 18 20 22 22 20 20 17 22 20 22 21
28 26 26 25 20 21 21 22 22 22 21 20 21 21 21 22 22 22 22 21 21 21 20 20 20 20 20 19 19 19 18 18 18 17 17 18 19 19 19 19 19 19 19 21 21 21 20 20 20 20 21 23 24 24 24 24 24 24 24 23 22 21 20 19 19 18 20 19 19 18 18 19 18 20 19 22 22 22 21 20 18 20 21 20 21
26 24 25 26 23 22 21 22 22 22 21 20 20 20 21 21 22 22 21 20 20 20 20 20 20 20 20 19 19 19 18 17 17 17 17 17 19 19 19 19 19 20 20 20 21 20 20 20 20 20 21 22 23 22 22 22 23 22 22 21 20 20 20 20 19 19 18 18 19 19 19 19 18 17 21 22 23 22 21 20 20 18 25 22 21
28 24 24 25 22 21 22 22 22 22 21 21 20 20 20 20 21 21 21 20 20 20 19 20 19 19 19 19 19 19 18 18 17 17 17 17 18 19 19 19 19 19 20 20 20 20 20 20 20 20 19 20 21 21 20 19 20 20 20 20 19 19 19 19 19 19 19 18 16 12 17 21 21 20 21 22 23 21 20 20 21 22 22 22 23
28 26 25 24 24 22 21 22 22 22 22 21 20 20 20 20 20 20 20 20 19 19 20 19 19 19 18 19 19 18 17 17 17 17 17 18 18 19 20 20 20 20 20 20 20 20 20 20 20 20 19 19 20 20 19 18 17 16 17 17 17 17 17 17 18 19 18 18 16 11 19 21 21 18 20 21 22 22 20 21 22 22 22 23 23
26 26 25 23 22 24 21 22 23 22 22 22 21 21 20 20 20 20 20 20 19 19 19 19 19 18 18 19 19 18 18 19 19 18 18 18 17 18 19 19 19 19 19 19 19 19 19 19 20 19 18 18 19 18 16 15 14 13 15 17 17 16 16 16 17 18 17 16 14 18 18 18 19 19 18 20 22 21 20 21 22 21 21 23 22
26 25 25 22 22 22 21 22 22 23 23 22 21 20 20 20 20 20 19 19 19 19 18 19 18 18 18 19 18 19 19 20 20 20 19 18 17 18 19 19 18 17 19 20 19 19 19 18 18 18 17 17 17 16 15 14 12 12 13 16 17 16 15 15 17 17 16 12 17 17 18 19 19 19 17 19 21 21 20 20 20 21 22 21 21
25 25 24 23 19 23 22 22 23 23 23 21 21 20 20 20 20 19 19 19 18 18 18 18 18 19 18 18 18 19 20 20 20 20 19 18 17 17 18 18 18 17 17 16 17 18 17 17 17 16 16 16 16 15 14 13 12 11 12 15 17 16 16 15 16 17 15 17 16 17 17 18 19 20 17 20 21 20 20 20 19 21 21 22 21
24 24 24 22 21 23 20 21 21 23 22 22 21 20 20 19 19 19 19 19 18 18 18 18 19 19 18 18 18 20 20 20 20 20 19 17 17 17 17 18 19 18 17 16 15 15 16 15 15 15 15 16 16 15 14 13 12 12 12 16 16 19 18 16 16 15 14 17 17 19 17 18 18 19 18 20 21 20 19 16 17 21 22 21 20
23 23 23 21 23 22 21 21 20 22 22 22 20 19 19 19 19 19 18 19 18 16 16 18 19 19 18 19 19 20 20 20 20 20 19 17 16 16 17 17 17 17 17 16 16 14 14 15 14 14 15 16 15 14 13 12 13 14 16 18 20 18 17 16 16 11 17 17 18 18 17 12 18 19 19 20 21 21 19 18 16 17 17 21 20
22 22 22 22 24 19 18 19 20 22 22 21 20 20 20 20 19 19 18 18 18 17 15 16 18 17 18 18 19 20 20 20 19 19 18 16 15 16 16 15 16 17 17 16 15 14 14 14 13 13 14 15 14 14 13 14 14 16 17 17 17 16 16 16 12 15 15 16 17 18 17 13 17 18 17 20 20 20 19 18 18 19 19 19 20
22 20 21 20 21 20 18 17 20 21 22 21 21 20 20 19 19 19 18 18 18 17 15 14 15 17 18 18 19 19 19 19 19 18 16 14 14 15 15 15 16 17 16 15 15 14 14 13 13 13 14 15 15 15 15 15 15 15 15 15 15 15 15 15 14 15 14 16 17 15 16 16 16 20 17 18 18 18 17 16 17 19 19 19 18
21 21 22 21 21 19 16 17 19 21 21 21 20 20 19 19 19 19 17 15 14 16 16 14 13 16 16 18 18 18 18 17 16 15 15 14 14 15 15 15 16 17 16 15 14 14 13 13 13 13 14 14 15 15 16 16 15 16 16 15 14 15 14 14 15 14 14 15 16 15 15 14 16 13 15 15 15 15 15 15 16 17 17 17 17
22 22 23 22 20 20 16 17 17 19 20 19 18 18 18 18 18 17 14 14 13 13 13 13 15 16 17 17 17 17 17 16 16 16 16 14 14 15 14 14 15 16 16 15 15 14 13 13 13 13 13 14 14 15 15 15 16 15 15 14 14 15 15 11 11 14 14 15 13 14 13 12 15 11 13 14 14 14 14 14 14 15 16 16 16
25 22 22 22 22 21 20 18 17 17 17 17 17 17 16 16 17 16 13 13 14 12 13 15 16 17 17 18 17 16 17 17 17 16 15 14 14 15 15 15 15 15 15 15 14 14 13 12 11 11 12 12 13 13 13 14 15 15 14 14 13 14 14 15 14 14 14 14 14 12 13 14 9 8 12 14 14 14 13 14 13 14 14 15 14
22 23 22 21 22 21 21 20 18 16 16 17 17 16 16 17 17 17 15 14 13 12 13 15 17 17 16 16 16 16 17 18 17 16 14 13 14 15 15 15 15 15 16 15 14 13 12 11 10 10 11 11 11 12 12 13 14 14 14 13 13 14 14 10 14 14 14 14 13 13 13 15 10 10 11 13 14 13 13 13 13 12 13 13 13
21 22 23 22 20 20 21 21 19 19 17 16 16 17 16 16 16 15 16 15 14 13 14 15 16 16 16 16 16 16 17 17 17 16 15 13 13 13 13 14 16 16 15 14 13 12 11 11 11 10 10 11 11 11 12 12 14 14 13 14 13 13 14 11 14 13 14 14 14 14 13 15 12 9 12 12 12 12 12 12 12 12 12 12 12
20 21 23 24 22 20 21 20 21 19 19 18 16 17 16 15 14 14 15 13 14 12 14 13 14 15 15 16 16 16 17 18 17 16 15 13 12 12 13 13 14 15 15 14 14 13 12 11 10 10 9 10 12 11 12 13 14 14 13 13 14 14 14 12 12 13 14 12 14 13 13 9 9 8 11 11 12 12 13 13 12 12 12 12 11
21 21 22 23 22 20 20 20 18 19 19 17 17 20 18 17 16 15 16 15 13 14 14 13 14 15 16 16 16 16 17 18 17 15 15 13 12 12 11 12 13 14 14 14 13 12 12 12 11 10 9 11 12 11 11 13 13 14 15 14 14 14 14 10 11 13 13 12 12 12 14 8 6 8 10 11 11 12 13 13 12 12 12 11 11
21 21 21 20 20 20 19 18 18 18 17 17 18 18 18 17 16 16 17 15 14 14 15 14 14 15 16 15 15 17 16 18 17 17 15 13 11 11 10 11 12 13 13 13 13 13 12 12 12 11 10 12 11 11 11 12 12 13 14 14 14 13 12 10 11 12 12 13 11 12 10 7 8 10 11 12 12 12 11 10 10 10 10 10 9
20 20 19 20 19 19 18 17 16 17 17 18 18 18 19 18 15 17 16 14 14 15 15 14 13 14 15 14 11 15 15 16 16 16 13 13 10 10 9 10 11 11 12 13 12 12 13 13 12 13 12 11 11 12 13 13 12 12 13 13 13 12 10 11 11 11 12 12 12 14 10 9 10 11 12 11 10 10 9 7 7 8 8 9 9
22 21 18 18 20 18 17 17 17 17 17 18 17 17 19 16 17 18 18 17 15 14 16 15 13 16 13 16 14 13 13 13 14 11 13 14 13 9 8 8 9 10 10 11 11 11 12 13 14 15 15 11 10 16 15 12 12 12 12 13 13 10 10 11 11 12 13 13 12 12 10 11 12 11 10 10 9 9 8 8 7 7 8 8 9
21 20 20 18 18 18 16 17 16 18 17 16 17 18 17 16 17 17 17 13 16 17 16 16 15 15 14 15 13 12 12 12 11 11 11 9 12 8 8 7 6 8 8 9 10 10 12 14 14 13 13 11 11 12 14 16 17 12 11 14 11 11 10 11 11 11 13 13 12 10 9 8 9 10 10 9 9 9 9 7 8 8 7 7 8
21 21 21 17 18 16 16 16 16 17 18 18 16 17 16 16 17 17 17 16 15 15 14 15 15 14 13 12 13 12 11 11 9 11 10 10 11 6 6 7 6 8 8 8 9 10 11 12 12 12 9 8 10 10 12 12 14 14 13 12 12 12 12 12 12 11 11 12 13 9 9 8 8 9 9 9 8 7 8 9 8 7 7 7 7
22 21 19 19 17 16 16 17 17 16 17 18 16 17 16 15 15 16 15 15 14 14 13 14 13 14 12 12 12 11 10 9 8 9 8 9 7 7 7 7 7 8 7 8 8 10 8 10 11 10 10 9 10 9 9 10 10 12 12 13 12 13 13 12 11 11 11 11 11 10 10 8 8 8 8 7 8 8 8 8 8 8 8 8 7
20 21 20 20 18 18 17 17 17 16 16 17 17 17 16 16 15 15 14 15 15 13 14 12 12 12 11 12 11 10 10 9 8 7 7 7 7 6 6 6 6 7 7 7 7 7 7 8 9 10 10 10 9 8 8 10 11 10 12 12 13 13 13 13 12 12 11 11 12 11 10 8 9 9 10 10 10 11 10 9 11 8 8 7 6
22 20 19 18 17 15 15 16 17 18 16 15 16 16 17 16 16 15 14 13 13 14 14 12 11 11 11 11 10 9 9 8 8 7 8 7 6 7 7 6 6 6 6 6 7 6 7 7 8 9 9 10 9 10 10 10 9 12 11 13 13 14 13 14 14 14 13 12 9 12 10 9 10 10 11 12 11 8 7 6 10 9 9 8 7
20 19 18 17 18 16 16 16 17 17 17 16 15 16 15 15 15 15 14 13 12 12 13 11 11 11 10 10 9 9 8 9 8 8 8 7 7 7 7 7 7 6 6 7 7 7 7 6 7 9 10 10 11 11 12 12 12 12 11 11 12 12 13 13 14 13 13 13 13 14 11 10 10 9 11 9 10 11 10 9 11 10 11 8 6
20 20 19 17 16 17 16 17 16 16 16 17 15 15 15 15 15 14 14 13 12 11 10 10 11 10 10 9 9 9 9 9 8 8 8 7 6 7 7 8 7 7 7 7 7 8 6 6 6 7 8 9 10 11 12 12 11 11 12 13 12 13 13 13 13 14 14 13 14 13 14 11 9 8 14 12 10 12 11 11 12 10 11 10 8
21 20 19 17 16 16 17 17 17 18 17 16 15 15 16 15 14 13 14 13 12 10 9 9 9 10 9 8 8 9 9 9 8 8 9 7 7 7 8 9 9 8 8 8 6 7 7 6 7 7 8 9 9 10 11 13 14 13 13 14 11 13 13 14 14 15 15 14 14 13 14 11 8 5 12 12 12 12 11 11 10 10 11 10 9
20 20 19 18 17 17 17 17 16 16 16 16 15 15 14 14 13 12 12 12 11 9 9 9 9 9 9 9 9 9 9 8 8 8 7 7 7 7 9 10 10 8 7 8 6 7 7 8 7 8 8 9 8 9 12 12 14 13 13 15 14 11 13 13 14 15 14 15 14 13 17 14 9 6 7 9 11 12 11 11 6 10 10 10 9
21 20 19 18 18 17 17 17 17 17 16 15 14 15 15 13 12 12 12 10 10 10 9 10 10 9 9 10 9 8 8 8 8 8 8 7 8 9 10 10 11 9 8 7 7 8 8 8 8 8 7 7 7 8 10 13 15 16 16 16 13 12 11 11 13 14 14 14 13 14 14 16 11 7 8 9 9 11 10 12 9 11 10 10 10
18 19 19 19 19 19 19 17 17 15 15 16 15 15 14 13 12 10 10 11 11 10 11 10 10 9 10 10 9 8 8 8 8 8 7 8 8 10 11 11 10 9 9 8 7 8 10 11 10 9 8 8 8 9 10 14 15 13 14 14 11 12 10 10 11 12 15 15 14 14 14 14 15 10 9 11 9 8 10 11 9 10 10 10 12
20 19 18 20 19 18 18 18 17 16 16 14 14 14 14 13 12 11 10 10 9 10 10 10 10 10 10 9 8 8 8 7 7 7 8 7 8 10 10 11 10 8 7 7 9 8 11 12 14 13 11 11 13 14 12 12 16 17 17 12 12 12 12 14 14 13 14 14 15 15 15 15 14 16 18 13 11 8 9 9 9 10 10 10 10
18 18 19 19 18 18 17 17 17 16 15 14 15 14 14 13 12 12 11 10 10 10 10 10 9 8 8 8 7 8 8 7 7 7 8 8 9 9 8 9 8 7 7 7 8 8 10 12 11 15 16 17 16 14 13 15 17 18 16 12 13 11 12 14 13 14 15 15 15 16 15 15 14 16 17 17 11 10 8 10 11 10 11 10 10
18 18 18 18 17 16 16 16 16 15 15 15 14 14 14 13 12 10 11 10 10 10 10 9 8 8 8 8 8 8 8 8 8 8 9 9 9 9 9 8 8 7 7 6 8 9 9 10 9 9 13 16 17 18 15 16 16 17 15 13 11 10 13 11 13 13 13 13 15 15 15 15 15 17 14 18 16 15 10 10 10 10 11 11 10
18 18 19 18 17 16 16 17 17 15 15 14 14 13 13 13 12 11 10 10 10 10 9 8 8 8 8 8 8 9 9 9 9 9 9 9 9 10 9 8 7 7 7 8 9 9 9 9 9 11 13 16 15 14 17 17 17 16 15 13 13 13 14 14 12 13 14 17 18 16 14 15 15 10 18 18 18 16 13 11 12 12 11 10 11
17 18 18 19 18 17 17 17 16 15 15 15 14 13 13 13 12 11 10 9 9 9 8 8 8 7 8 9 9 10 9 9 9 9 9 9 10 10 10 9 9 9 8 8 9 9 9 9 11 12 14 11 14 15 16 16 16 14 14 16 18 16 16 15 14 13 15 17 17 19 19 15 15 16 18 19 18 17 17 15 10 11 11 7 7
16 16 17 16 16 18 16 16 14 15 14 14 13 13 13 11 11 10 9 8 9 8 7 7 8 8 10 10 10 10 9 9 9 9 10 9 9 9 11 10 10 10 11 11 11 11 10 10 11 11 10 13 14 14 16 15 18 15 16 16 17 16 14 14 14 14 16 16 16 19 19 19 16 16 18 19 19 18 17 17 18 18 18 10 8
17 17 17 17 18 17 15 14 13 14 14 14 13 13 14 13 11 9 9 8 7 7 8 9 9 10 10 9 10 11 9 9 9 9 9 10 9 10 10 9 10 12 13 13 11 10 10 11 12 12 13 12 13 14 14 15 16 14 16 17 14 15 17 18 18 18 14 15 16 17 19 19 18 17 19 20 20 19 19 18 17 16 15 14 10
17 17 19 18 18 19 17 15 14 14 14 14 14 14 13 13 10 9 7 7 7 8 9 10 11 11 10 10 10 10 10 10 9 9 10 11 10 10 11 11 12 13 12 12 10 11 12 13 13 12 14 13 12 11 11 8 9 11 11 13 14 15 17 20 22 18 15 14 14 19 18 23 23 20 20 20 19 20 20 20 19 17 16 16 16
19 18 18 19 17 16 16 16 16 15 14 14 15 14 11 12 10 10 8 7 9 10 12 11 12 11 11 10 10 10 11 11 10 11 11 11 12 12 12 12 11 11 11 11 11 12 13 13 12 14 13 14 12 9 9 10 10 16 15 13 17 17 18 18 21 21 19 17 17 19 19 18 20 20 18 20 20 21 21 21 20 19 17 17 15
19 19 17 17 16 16 15 15 16 15 15 14 15 13 12 11 10 9 10 9 11 11 10 8 8 8 8 9 11 11 11 11 11 11 11 12 12 12 12 12 12 12 13 13 12 13 12 12 12 13 12 11 11 10 11 15 13 10 11 12 17 16 16 19 20 22 24 20 18 19 19 19 22 20 17 19 21 22 23 22 20 19 19 18 17
18 17 17 17 17 16 15 15 16 14 14 14 13 13 13 11 10 10 12 9 7 8 8 8 8 8 9 9 10 10 11 11 10 11 12 11 12 12 12 11 12 12 14 14 13 14 13 14 14 15 15 16 13 12 14 15 15 13 12 17 14 13 19 20 22 22 23 22 19 20 21 22 20 17 16 21 21 21 22 21 22 21 20 19 18
17 17 17 17 15 16 15 15 15 14 13 14 15 15 14 12 10 7 7 7 7 7 7 8 8 8 9 9 9 10 10 10 9 10 11 11 11 12 11 11 11 12 13 14 14 15 14 15 16 15 15 15 16 13 14 17 19 18 19 14 14 15 19 15 14 18 16 18 20 20 20 19 19 19 21 23 21 22 21 22 22 22 21 21 19
18 17 16 17 16 16 14 14 14 13 14 14 15 15 14 13 12 13 12 10 10 11 11 10 9 8 8 6 6 7 8 9 8 8 10 10 10 11 10 10 10 11 12 13 13 14 15 16 16 14 17 16 17 17 18 16 20 21 22 22 18 23 19 14 13 20 14 19 19 21 20 19 19 22 21 22 21 22 22 24 22 22 22 22 21
16 17 16 15 15 14 14 14 13 13 14 14 15 15 14 13 14 13 12 13 11 10 7 7 6 7 6 6 7 6 7 7 7 8 9 10 10 9 10 11 11 11 11 12 12 13 14 14 14 16 16 15 17 20 19 17 16 19 21 22 19 15 12 18 23 19 22 17 17 19 19 20 19 19 19 20 22 20 19 21 22 23 23 23 22
15 16 14 15 15 13 14 13 12 12 13 14 15 14 15 15 14 10 7 9 7 8 8 8 6 6 6 6 6 7 6 7 7 8 9 9 9 10 10 10 11 11 12 12 13 13 14 13 14 15 16 16 17 20 19 18 20 20 19 23 23 20 18 17 17 21 21 22 17 16 16 18 20 20 21 20 20 20 21 22 23 24 24 25 24
14 15 14 14 13 12 12 11 11 12 11 12 12 11 9 11 10 10 9 7 7 8 8 8 7 7 6 7 7 8 7 6 7 7 8 8 9 9 9 10 10 10 11 11 12 12 13 13 13 14 16 18 16 15 19 19 18 21 18 20 21 23 21 22 21 18 23 23 24 16 13 12 17 19 22 21 21 21 19 21 25 25 23 24 25
11 12 12 13 13 12 12 12 10 10 10 10 10 10 11 11 11 10 11 10 8 9 8 9 8 7 6 7 7 8 7 8 7 6 7 8 7 8 8 9 9 10 11 11 11 12 13 13 14 15 16 17 17 17 20 19 18 19 19 23 25 23 21 22 20 20 18 19 24 14 14 15 19 20 22 24 24 22 23 17 17 21 25 25 25
13 13 13 14 14 15 13 12 11 13 10 10 10 10 10 10 12 11 11 11 11 10 10 9 8 8 8 7 7 9 8 9 9 8 8 8 7 7 8 8 8 9 10 11 12 12 13 14 15 15 16 18 18 18 18 19 21 21 19 20 21 23 24 26 23 24 23 21 19 22 17 17 19 16 22 23 22 23 21 21 19 22 25 25 25
Wind_Speed
14 16 15 16 16 17 17 17 18 17 16 15 14 14 14 14 15 16 16 16 16 16 16 17 16 16 15 15 15 13 13 13 13 13 14 14 14 15 15 15 15 15 15 16 16 16 16 17 16 15 16 16 18 18 18 20 19 15 14 15 15 14 14 14 14 14 14 13 13 13 13 13 13 14 13 13 14 14 13 11 8 10 9 12 15
18 16 15 15 17 17 17 17 18 17 16 16 15 15 15 15 15 16 16 16 16 16 17 16 16 16 15 15 15 14 13 14 14 14 13 14 14 14 14 14 15 15 15 16 16 16 16 16 15 15 16 17 18 18 18 19 19 17 15 14 14 13 13 14 14 13 13 13 13 14 13 13 13 13 15 14 15 15 12 11 12 10 9 14 15
16 15 14 16 18 18 17 17 18 17 17 16 16 16 15 15 15 15 15 15 16 16 16 16 16 16 15 14 15 14 13 14 13 13 13 13 14 14 15 15 15 15 16 16 16 16 15 15 15 15 15 16 17 17 17 18 18 17 16 15 14 15 14 13 13 12 13 14 14 14 15 13 13 14 14 16 16 15 14 13 13 12 10 14 14
18 14 14 16 18 17 18 18 18 18 17 17 16 16 15 14 15 15 15 15 15 15 15 15 15 15 14 15 15 14 14 14 13 14 13 13 14 14 14 15 15 15 16 16 16 15 15 14 15 15 15 15 16 16 15 15 16 16 16 15 13 13 14 13 13 13 12 11 9 9 9 11 12 13 16 16 16 15 14 15 15 15 15 15 15
17 14 14 13 15 17 17 18 18 18 18 17 16 16 15 15 15 15 14 14 14 15 16 15 15 14 15 15 15 14 14 14 14 14 14 13 14 14 15 15 15 16 16 16 15 15 15 14 13 13 13 14 14 14 13 13 13 13 14 14 13 13 12 12 12 12 11 9 7 8 9 11 10 11 13 16 15 14 15 15 15 15 15 15 16
16 15 14 12 13 15 17 18 18 18 18 18 17 17 16 15 15 15 15 13 13 15 16 16 15 15 15 15 14 15 15 15 15 15 14 13 12 14 15 15 15 15 15 15 15 15 15 14 13 12 12 13 13 12 11 11 11 11 12 14 13 12 12 11 11 10 9 7 7 8 8 9 9 9 14 14 15 14 15 15 15 14 13 15 16
17 13 13 12 11 14 17 18 18 19 19 18 17 16 16 15 15 15 14 14 13 14 15 15 14 14 14 15 15 15 15 16 16 15 15 14 13 13 14 13 13 14 15 15 15 15 14 13 13 12 11 12 11 10 10 10 9 9 11 13 13 12 12 11 10 9 6 5 7 7 7 9 9 7 11 14 14 15 15 14 14 12 13 12 12
14 13 13 12 10 15 17 18 18 18 18 17 17 17 16 16 15 15 14 15 14 13 14 15 15 14 15 14 15 16 16 16 16 16 15 15 14 14 14 14 13 11 11 13 14 14 13 13 12 11 11 11 10 10 9 9 8 7 10 12 13 13 11 11 10 8 5 6 6 6 7 8 9 9 13 13 14 14 14 14 13 13 12 11 11
13 14 13 12 12 19 17 16 17 18 18 18 17 16 16 15 15 15 14 14 13 13 14 15 15 15 14 14 15 16 17 16 16 15 14 14 14 14 14 14 14 12 10 10 12 12 12 12 11 11 11 11 10 9 8 8 7 6 10 13 13 13 11 10 9 7 6 7 7 7 8 8 9 9 11 13 13 12 12 12 13 13 12 11 12
13 13 13 11 12 18 17 17 16 18 18 18 16 16 15 15 14 14 14 13 13 12 13 14 15 15 15 15 15 16 16 16 15 14 14 13 13 13 14 13 13 13 12 12 11 11 11 11 11 10 11 10 9 8 7 7 9 10 13 13 12 12 11 10 8 5 7 7 8 8 8 8 8 9 12 14 13 14 14 14 12 12 11 12 14
14 12 12 12 15 15 14 15 17 18 18 17 17 16 15 15 14 14 13 13 13 12 12 13 14 14 15 15 16 16 16 16 15 14 13 12 12 13 13 12 13 13 12 12 11 11 11 11 10 10 10 10 9 8 8 9 10 12 13 12 12 11 10 8 5 6 6 7 8 8 8 7 8 8 13 13 13 13 13 13 13 12 12 12 13
13 12 12 11 16 15 14 14 17 17 18 17 16 16 15 15 14 14 13 12 13 13 12 11 12 14 14 15 15 15 16 15 14 13 12 11 11 12 12 12 13 13 12 12 11 11 11 10 9 10 10 10 9 9 9 10 10 10 11 11 11 10 9 6 5 6 6 7 8 6 7 7 8 10 12 11 12 12 11 12 12 12 11 12 13
13 12 12 12 13 14 13 14 15 17 17 17 16 16 15 14 14 13 11 11 10 12 13 11 11 13 13 15 15 15 15 14 13 12 11 11 11 12 12 12 13 13 12 12 11 11 10 10 9 9 9 9 10 10 10 10 10 10 10 10 10 10 8 5 6 6 6 7 7 6 7 6 8 9 9 9 9 10 10 11 11 11 11 11 12
13 13 13 12 11 15 12 14 13 15 16 16 15 14 15 13 13 12 9 9 10 11 11 10 13 13 14 14 13 14 14 13 13 12 11 11 11 12 11 12 12 13 12 12 11 11 10 9 9 9 9 9 9 10 11 11 10 10 10 10 10 10 9 6 5 6 6 6 5 6 6 5 7 7 8 8 8 8 9 9 9 10 10 11 12
15 14 13 12 12 12 16 14 14 14 14 14 14 14 12 11 10 10 9 9 10 10 11 12 13 13 14 14 14 13 14 14 14 12 11 11 12 12 12 12 12 12 12 12 11 11 10 9 9 8 8 8 8 9 10 11 10 10 10 9 9 8 5 5 4 5 5 5 5 5 5 6 6 6 8 7 7 7 8 9 9 9 10 10 10
14 14 14 12 12 12 12 14 14 14 13 14 14 13 11 10 10 10 9 9 9 10 11 13 14 13 14 13 13 13 14 14 13 12 11 10 11 12 12 12 12 12 12 12 11 10 9 8 8 8 7 7 8 9 9 10 10 9 9 9 8 7 5 3 4 4 4 5 5 5 5 7 8 8 8 7 8 7 8 8 8 8 9 10 10
13 14 14 14 13 11 11 11 13 15 14 13 13 14 12 11 10 9 10 9 10 10 11 12 13 13 13 13 13 13 14 14 13 12 11 10 10 11 11 11 12 12 11 11 10 9 9 8 8 7 7 7 7 8 10 10 10 8 8 8 8 8 7 3 4 4 4 5 5 4 5 6 8 8 7 7 7 8 7 8 8 8 8 8 9
13 13 14 14 13 12 11 11 12 11 11 12 13 14 12 11 10 10 10 9 9 10 12 11 12 13 12 13 13 13 14 15 13 12 11 9 9 10 10 11 11 12 12 11 11 10 9 9 8 7 6 7 7 8 10 10 9 9 8 8 8 7 7 3 4 4 5 5 5 4 5 7 7 7 7 8 7 7 8 8 8 8 8 8 8
12 13 13 13 13 12 11 11 11 10 11 9 9 12 14 12 11 11 11 10 9 12 12 11 12 13 13 13 13 13 14 14 13 12 10 9 9 9 9 10 10 11 11 11 10 10 10 9 9 7 6 6 8 9 10 10 9 9 9 8 8 7 6 4 3 4 5 3 4 4 5 6 4 6 8 8 8 8 8 8 8 8 8 8 8
12 12 12 11 11 11 10 9 10 10 9 9 9 11 13 14 13 12 13 11 11 12 12 11 12 12 13 12 12 11 12 12 13 10 10 8 6 6 8 9 10 10 10 10 10 10 10 10 9 8 7 6 8 9 9 10 9 9 9 9 8 7 4 2 3 3 3 3 3 4 7 5 6 8 8 8 9 8 7 6 6 6 6 6 7
9 11 10 10 11 11 10 8 9 10 9 10 9 10 11 13 11 11 12 11 11 12 12 11 11 11 11 11 9 8 8 8 8 8 8 6 6 6 7 8 8 9 10 10 10 10 10 10 10 8 6 5 8 10 11 10 9 9 9 9 8 4 2 2 3 3 2 4 4 5 7 5 6 8 8 8 7 7 6 5 4 5 5 5 5
11 10 10 10 10 10 10 10 9 9 10 8 8 8 9 10 10 10 10 10 11 12 10 8 9 8 11 9 6 6 6 6 7 7 6 7 6 5 5 6 7 8 8 9 9 9 10 11 9 8 6 5 4 7 8 9 10 10 9 9 5 3 3 3 3 3 3 3 3 6 8 8 8 7 7 6 6 6 6 5 5 5 5 5 5
11 10 10 10 9 9 9 9 9 10 10 9 8 8 9 8 10 9 8 10 10 10 9 8 8 8 7 6 6 5 6 5 5 4 5 5 6 5 5 4 5 6 6 7 8 8 9 11 9 7 6 4 4 4 6 7 7 9 8 6 4 3 3 3 3 2 3 3 2 7 5 6 7 6 6 6 6 7 6 5 6 5 5 5 4
12 10 11 8 9 8 9 9 10 10 9 8 8 8 8 8 8 8 8 8 7 7 8 8 7 7 6 6 6 6 5 4 6 8 6 3 5 4 4 5 5 6 6 4 6 8 9 9 8 5 4 3 3 3 4 5 6 6 5 5 4 4 5 4 3 3 2 4 2 7 6 6 6 6 6 5 4 4 5 6 4 4 5 4 4
11 11 9 10 10 9 9 9 9 8 9 8 8 8 8 7 7 7 7 7 7 7 6 7 7 7 6 5 6 5 4 3 3 3 2 2 1 2 2 1 1 2 2 2 1 3 2 3 4 2 2 3 3 3 3 4 3 4 4 5 5 5 5 4 3 3 3 3 3 5 7 6 6 6 6 5 6 6 6 5 5 5 6 5 4
10 10 10 11 10 10 9 9 9 9 9 8 8 8 8 7 7 7 7 7 7 6 6 6 6 6 5 6 5 4 4 3 3 2 2 1 1 1 1 1 1 2 1 1 2 1 1 2 2 3 2 1 3 2 3 3 3 3 3 4 5 5 5 4 4 4 4 3 4 7 8 6 5 6 4 5 7 7 7 6 6 5 6 5 4
11 10 9 9 9 9 9 9 9 9 9 8 8 7 7 7 7 7 7 6 6 7 6 6 5 5 5 5 4 3 3 3 3 2 2 1 1 1 1 1 1 1 1 0 1 1 1 1 2 3 2 2 3 3 4 4 3 4 4 5 5 5 5 5 5 5 5 4 5 9 8 7 7 6 7 7 5 3 4 4 7 6 6 6 5
11 11 9 9 9 9 9 10 9 9 8 8 8 7 7 7 7 7 6 5 6 6 6 5 5 5 5 4 3 3 2 3 3 3 2 2 1 1 1 1 1 0 1 1 1 1 1 1 1 3 3 3 4 4 4 5 5 5 5 4 5 5 5 5 5 5 5 5 5 9 9 7 7 6 5 4 6 5 6 5 7 6 7 6 4
11 12 9 9 9 8 9 10 9 9 8 8 7 7 7 7 6 7 6 7 5 5 4 5 5 4 4 4 3 3 3 3 3 2 2 1 1 1 2 2 1 1 1 0 1 1 1 1 1 1 2 2 3 4 4 5 4 4 5 6 6 6 5 5 5 5 5 5 5 6 11 9 8 7 7 4 4 5 6 7 7 6 7 7 5
11 11 10 9 9 9 10 10 10 9 8 8 7 7 7 6 6 6 6 6 5 4 4 4 4 4 3 3 3 3 3 3 2 2 3 2 2 1 2 2 2 1 2 2 1 1 1 1 1 2 2 2 3 3 3 4 5 5 5 6 5 5 5 6 6 5 5 5 5 5 11 9 7 5 7 7 6 7 6 5 6 5 7 7 6
11 11 10 8 9 9 10 10 9 9 8 8 7 7 7 6 6 5 5 5 5 4 4 4 3 3 3 3 3 3 3 3 3 2 2 2 2 2 3 2 1 1 2 2 1 1 2 2 2 2 2 2 2 3 4 5 5 5 6 6 6 5 5 5 6 6 6 5 5 5 8 12 7 5 5 7 8 8 8 7 4 7 6 7 6
12 11 10 9 10 11 10 10 9 9 8 7 7 7 7 6 6 5 5 4 5 4 4 4 4 3 3 3 3 3 3 3 3 3 3 2 3 4 4 3 1 1 2 2 2 2 2 2 2 2 2 1 2 2 3 4 6 6 6 7 6 5 5 5 6 6 6 6 5 5 5 7 9 6 5 7 6 9 8 9 5 8 7 6 6
9 11 10 11 11 11 10 10 9 8 8 7 6 6 6 6 5 4 4 5 5 4 5 4 4 4 3 4 3 3 3 3 3 3 2 3 3 4 4 3 2 2 2 2 3 3 4 4 4 3 2 2 2 3 3 3 5 6 5 6 5 5 4 4 4 5 7 7 6 5 5 6 7 9 6 7 7 6 8 7 7 8 7 7 8
9 9 10 11 10 8 8 8 9 9 8 7 6 6 6 6 5 4 4 4 4 4 4 4 4 3 3 3 3 3 2 2 2 3 3 3 3 4 4 3 2 2 2 3 3 3 4 5 5 4 4 4 4 3 3 4 5 5 5 5 5 5 4 6 6 6 6 6 6 6 6 6 5 7 8 10 9 6 7 7 7 7 7 7 8
9 9 11 12 11 9 8 7 9 8 8 8 8 7 7 6 5 5 5 5 4 4 4 4 4 3 2 2 2 2 2 2 2 3 3 3 4 4 3 2 2 2 2 2 2 2 3 4 4 5 6 6 6 5 3 4 5 6 5 4 5 4 5 6 5 6 6 7 6 7 6 6 6 6 6 7 9 8 7 7 8 6 8 8 7
10 10 10 10 10 9 9 9 10 9 8 8 8 7 7 6 5 5 5 5 4 4 4 3 3 3 3 2 2 2 2 3 3 3 3 3 3 3 3 3 2 2 1 1 2 3 3 3 3 3 4 6 6 6 5 5 5 6 4 4 3 3 4 4 5 6 5 6 5 7 6 6 6 7 7 6 7 9 8 8 8 8 9 9 7
11 11 11 11 10 10 9 10 9 9 9 8 8 7 7 7 6 5 5 5 4 4 3 2 2 3 2 1 1 2 3 3 3 3 3 3 3 3 3 2 2 2 2 2 3 3 3 3 3 3 4 5 5 7 6 6 6 6 5 4 4 4 5 6 5 5 5 8 8 8 6 7 7 7 8 7 7 6 9 9 10 7 9 8 9
10 11 11 11 10 9 9 9 8 9 8 8 8 7 6 6 5 4 5 4 4 3 2 2 2 2 1 1 1 2 3 3 3 3 3 3 3 3 3 3 3 2 2 3 3 3 4 4 4 3 4 5 5 6 6 5 5 5 5 6 7 7 8 7 7 6 7 8 9 10 9 7 7 7 7 8 8 7 7 9 8 8 10 5 4
9 10 10 10 9 9 9 10 8 9 8 8 7 7 7 6 5 5 4 3 3 3 2 1 1 1 1 2 2 2 3 3 3 3 3 3 3 3 3 4 3 4 3 3 3 3 4 4 4 5 4 5 5 5 5 6 6 6 7 8 7 7 6 7 6 7 8 8 8 8 7 9 7 7 8 8 8 8 8 7 8 8 8 8 7
9 10 11 10 10 10 9 7 7 8 8 8 7 6 6 5 5 4 3 3 2 1 0 1 2 2 2 2 2 3 3 3 3 3 3 3 3 3 3 3 3 3 3 4 4 3 4 5 5 5 6 5 5 5 5 6 6 7 8 9 7 8 10 10 8 8 7 6 7 6 7 8 8 7 8 9 8 9 8 9 7 7 6 9 8
11 11 11 11 10 10 10 8 7 8 7 7 7 7 6 5 5 4 2 1 0 1 1 2 3 3 3 3 3 4 4 4 4 4 4 4 4 3 4 4 3 4 4 4 4 5 5 5 5 4 5 6 5 5 5 3 4 5 5 7 7 8 9 9 10 8 8 6 7 7 5 9 10 9 8 9 9 9 9 9 8 7 7 6 8
11 11 11 11 10 10 9 9 9 8 8 8 7 7 5 5 4 4 2 2 1 1 1 1 2 2 3 3 4 4 4 4 4 4 4 5 4 4 4 5 4 4 4 5 5 5 5 5 5 5 5 6 5 3 3 3 3 5 6 6 7 8 10 10 10 10 9 9 8 8 8 9 9 10 8 9 9 9 10 9 9 8 8 7 6
12 11 10 10 9 9 8 9 8 8 8 8 7 6 6 5 5 4 3 3 2 1 1 1 1 2 2 3 4 4 4 3 4 4 4 5 5 5 5 4 5 4 5 6 6 6 5 6 6 6 5 4 5 3 5 6 5 4 5 5 6 6 6 8 10 12 11 10 9 10 9 8 11 10 8 9 9 9 9 9 10 9 9 8 7
10 10 9 10 8 8 9 9 9 8 7 7 7 7 7 6 5 5 4 2 1 1 2 2 2 3 3 3 3 4 4 3 3 4 5 5 5 6 5 4 4 4 6 6 6 6 6 6 7 7 6 7 5 5 7 7 6 4 4 6 5 5 8 6 8 10 11 10 10 11 11 11 10 10 8 10 10 9 9 10 11 10 10 9 8
9 10 10 9 7 10 9 9 8 7 7 8 8 8 7 6 4 3 3 3 2 2 2 2 2 2 3 3 3 3 3 3 3 4 4 5 5 5 5 4 5 5 6 6 7 7 7 7 8 7 7 7 7 5 6 8 9 9 8 4 4 5 7 5 3 6 7 9 11 12 11 11 10 9 11 11 10 10 11 11 11 11 11 10 10
10 9 9 9 9 8 9 8 7 7 7 8 9 8 7 6 6 6 5 4 4 4 4 3 3 2 1 1 1 1 1 2 2 3 3 3 3 4 4 5 5 5 5 6 6 7 8 8 8 7 8 7 7 8 7 7 9 11 12 9 7 7 6 3 2 5 4 8 9 12 12 12 11 10 10 10 10 11 11 11 11 12 11 11 10
9 8 8 9 9 7 8 8 7 6 7 8 9 8 7 6 8 6 5 5 4 3 2 2 1 1 0 1 1 1 1 1 1 2 2 3 3 3 3 3 4 4 4 4 5 6 7 7 6 6 7 6 7 8 9 6 6 9 10 10 10 7 5 7 8 7 9 5 7 9 11 12 11 11 10 9 11 10 7 9 11 12 12 11 11
9 9 8 8 9 8 8 7 6 5 6 7 8 7 8 7 7 5 3 4 2 2 3 2 1 1 1 1 1 0 1 1 1 1 1 2 2 3 3 4 4 4 4 5 5 5 6 6 7 7 6 6 7 7 8 8 8 7 7 9 10 10 10 9 10 10 8 9 6 7 9 10 11 11 9 10 11 9 9 10 11 11 11 12 11
8 8 8 7 7 7 7 6 5 5 5 6 6 6 4 5 4 4 3 2 2 2 2 2 2 1 2 2 1 1 1 0 1 1 1 1 2 3 3 4 4 4 4 4 5 6 7 7 7 7 7 7 6 6 7 7 8 9 7 7 10 10 8 8 11 9 9 10 11 7 5 5 7 9 11 11 11 9 9 8 9 12 11 12 12
6 7 7 5 5 5 3 5 4 4 5 5 5 4 5 5 5 4 5 4 3 3 2 3 2 2 1 1 1 1 2 2 1 1 2 1 2 2 3 4 4 3 4 4 5 6 6 7 7 8 8 9 9 8 8 7 7 8 8 10 11 10 9 9 9 9 9 9 11 5 5 6 7 7 10 12 11 11 11 8 8 8 10 11 12
5 4 6 6 7 9 6 6 6 6 5 5 5 5 5 5 5 6 5 5 5 4 4 3 3 2 2 2 2 2 2 2 2 2 3 2 2 3 3 3 3 4 5 5 6 5 6 7 7 8 9 10 9 9 9 9 9 9 9 7 6 8 9 10 10 10 10 9 8 11 9 7 9 6 7 10 10 12 11 10 10 9 10 12 12
Wind_Direction
153 143 146 138 141 140 138 132 126 125 124 123 122 120 118 115 112 112 114 111 113 114 116 117 118 119 119 119 120 121 119 119 118 116 116 113 114 114 113 112 111 111 113 112 105 100 96 95 93 95 96 97 93 90 87 85 85 80 83 85 80 74 77 82 85 82 82 86 85 87 87 93 90 93 95 96 96 92 87 92 94 81 77 76 73
148 144 144 140 138 139 138 132 126 125 124 124 123 124 123 120 118 117 116 116 117 118 119 120 121 121 121 121 122 120 119 119 116 117 115 113 113 112 111 108 109 112 111 107 103 99 96 96 99 101 101 99 96 89 87 87 89 93 87 85 89 88 81 80 82 88 92 90 91 92 93 92 100 103 104 97 90 88 86 81 75 78 76 78 77
139 140 143 139 140 140 138 133 127 126 125 124 125 125 124 122 120 117 115 117 118 120 121 122 123 123 122 123 121 119 117 112 115 115 114 113 112 111 111 111 108 110 110 106 99 96 96 97 97 100 103 103 96 87 86 84 83 82 81 78 82 86 89 88 87 85 85 86 88 92 90 85 81 88 98 97 90 88 87 82 81 81 79 80 81
139 139 142 138 140 138 139 133 128 127 125 125 126 125 124 123 122 119 118 119 120 122 123 124 124 123 124 122 121 119 118 118 117 112 109 110 112 111 110 109 111 113 112 107 102 97 96 97 99 101 103 99 94 89 84 82 84 84 83 83 76 76 78 81 81 80 78 79 86 102 102 98 98 98 91 92 90 87 86 85 83 81 82 79 78
135 140 140 139 141 140 139 134 128 127 126 126 127 128 126 125 123 121 122 121 121 123 125 125 124 124 124 122 120 118 117 112 107 107 107 107 109 109 108 109 109 111 111 108 104 100 98 97 100 105 107 102 96 90 82 80 79 82 86 86 84 81 76 75 76 76 76 75 88 99 91 89 91 84 95 91 92 90 89 88 87 87 86 85 80
136 139 140 138 140 142 140 134 128 128 128 128 128 128 127 126 126 126 124 123 122 124 124 125 124 123 122 122 120 116 111 109 107 106 106 107 111 110 105 104 105 107 107 108 104 100 99 99 101 103 106 100 96 88 82 78 74 79 91 95 92 87 82 78 75 74 76 79 97 92 92 93 94 96 92 96 92 94 92 90 87 86 86 85 83
135 137 139 138 140 142 141 134 129 128 128 128 129 127 129 130 129 129 127 126 122 123 124 124 124 123 122 121 118 115 112 109 107 105 98 91 86 89 98 93 97 110 115 114 111 102 100 101 100 100 101 96 88 78 71 68 68 77 95 104 102 95 91 87 81 79 76 110 91 93 94 96 95 90 106 102 99 94 92 88 85 85 83 78 76
132 137 140 140 139 144 141 135 130 128 129 129 130 128 130 131 132 131 130 129 126 125 126 126 125 124 121 118 117 115 113 110 105 100 97 95 96 98 98 99 97 96 113 116 109 106 103 100 97 93 92 88 81 72 67 69 73 85 105 114 108 104 99 95 91 78 74 92 93 90 93 93 97 101 95 93 93 90 88 86 85 81 79 84 91
133 138 139 139 139 142 140 135 130 128 129 129 128 129 131 132 134 133 132 130 127 127 127 127 126 124 121 120 120 115 113 109 103 100 97 96 96 97 98 98 98 99 98 111 116 109 108 104 99 91 85 80 76 71 72 78 81 96 116 118 112 107 104 100 101 116 107 96 95 95 95 95 94 91 89 88 87 88 92 96 93 86 75 74 75
133 136 140 139 140 143 139 133 128 128 129 130 129 131 132 135 134 134 134 132 129 127 126 127 126 126 125 124 120 116 113 108 104 101 100 101 102 103 103 102 103 104 109 112 109 105 106 103 98 91 86 81 77 76 80 84 87 97 116 115 111 108 104 98 94 91 99 98 92 87 72 72 87 85 93 90 85 83 78 70 65 67 76 79 76
133 136 141 138 139 137 135 132 129 128 129 130 132 133 136 136 136 136 136 134 131 129 128 127 128 128 125 124 121 114 110 107 105 103 103 103 104 103 102 103 104 106 109 113 113 106 102 98 92 93 91 88 84 86 91 93 93 103 112 110 108 104 100 101 117 103 100 101 95 94 92 92 88 90 87 85 85 85 83 83 86 85 79 75 75
132 136 139 136 132 136 134 133 129 128 129 132 134 136 138 140 138 138 138 135 132 129 126 126 129 128 124 122 118 113 109 108 107 107 107 106 105 102 99 99 99 98 104 111 109 102 102 98 99 99 96 93 94 95 101 101 102 107 106 104 101 100 98 94 102 102 104 100 91 88 89 94 88 83 84 86 85 83 84 84 83 82 79 76 75
132 139 139 134 136 135 135 131 130 129 130 132 136 138 140 142 142 141 139 134 130 130 128 127 125 121 122 120 115 114 112 110 109 111 110 105 97 95 96 96 96 98 102 111 113 108 108 105 104 99 94 96 99 103 108 110 109 107 105 102 102 99 96 104 111 108 110 108 107 104 98 85 83 86 87 87 85 84 81 82 82 81 78 76 76
136 141 140 134 136 137 132 130 129 129 131 134 137 140 143 144 145 140 134 129 126 126 123 123 121 122 121 117 115 116 113 112 110 104 100 96 96 95 95 94 95 98 102 106 110 111 111 108 106 99 93 91 97 106 111 112 111 109 108 105 105 105 106 99 97 108 114 113 103 98 91 93 87 83 85 86 84 81 80 81 81 79 78 78 78
140 141 138 136 136 139 132 130 128 129 131 133 138 141 141 146 141 135 136 120 115 118 122 124 124 123 123 123 121 120 116 112 105 100 97 95 94 94 94 95 96 98 100 106 110 109 109 106 98 97 93 90 94 106 116 117 116 114 113 112 111 112 125 117 120 114 113 111 114 118 101 94 78 89 86 83 84 83 82 83 84 85 81 79 78
138 138 137 135 140 139 140 132 128 128 130 135 138 141 140 141 140 138 127 113 116 121 124 127 126 125 125 123 120 113 111 105 102 101 99 96 96 98 99 99 101 97 93 96 104 109 108 105 105 103 102 103 106 117 125 125 120 119 116 113 113 111 99 109 120 122 120 122 112 106 108 93 75 82 89 92 94 96 93 87 84 82 85 81 78
139 140 138 138 141 143 141 141 134 131 131 134 138 141 141 142 143 137 122 118 126 125 127 126 125 126 122 120 118 117 113 109 108 106 104 99 96 95 98 101 95 94 96 98 104 109 108 107 107 107 107 106 114 130 134 133 127 118 116 119 117 117 116 132 122 132 122 115 118 117 111 116 100 100 104 103 102 98 95 89 85 83 82 80 80
140 143 142 143 144 145 143 140 140 138 135 134 137 142 144 144 145 136 132 132 129 125 125 122 126 127 125 121 121 119 115 112 110 108 107 103 102 102 99 95 101 101 99 100 100 101 100 99 101 106 109 113 122 138 143 138 132 124 121 120 124 123 123 149 130 133 126 129 121 117 113 102 116 118 115 105 100 95 93 94 92 90 87 87 84
142 144 145 147 145 146 143 142 141 142 140 140 141 145 147 146 143 144 145 139 133 136 129 127 129 131 130 129 124 120 116 113 114 115 114 113 108 107 102 103 101 102 102 102 104 103 97 92 92 98 105 115 128 136 146 140 133 129 127 128 126 128 130 164 144 137 137 145 126 126 113 114 109 118 115 116 114 107 95 90 91 86 83 83 84
144 149 147 147 147 146 144 141 142 143 143 140 141 144 149 149 151 153 152 145 142 140 134 132 132 135 134 129 126 125 120 117 118 118 119 117 119 110 111 107 106 106 106 107 106 102 97 92 90 96 100 109 119 130 137 140 136 135 136 133 134 138 165 150 138 146 146 119 127 125 115 146 139 133 123 119 117 109 102 101 100 94 85 80 78
148 151 146 146 145 145 139 138 144 141 140 140 141 145 147 149 154 155 153 150 148 142 135 132 132 132 135 130 135 132 124 121 126 115 126 119 121 121 115 113 110 109 109 109 107 104 101 97 95 92 90 92 110 125 134 137 136 139 141 142 141 175 150 155 152 149 149 143 157 119 135 148 142 136 132 126 118 114 117 121 113 111 107 100 90
155 151 150 148 147 146 144 145 144 142 142 140 143 146 149 160 156 156 157 154 152 145 145 141 138 133 126 137 136 128 119 118 115 122 122 132 124 120 114 110 111 111 108 107 106 106 105 103 102 99 104 105 117 134 140 138 139 146 150 142 169 161 164 172 173 159 153 147 161 126 163 149 149 144 136 133 128 122 123 127 119 124 114 110 109
155 151 152 150 155 150 147 146 146 147 143 144 146 148 150 155 155 156 155 159 154 155 148 145 143 139 143 135 132 125 120 121 119 119 112 104 110 133 126 111 108 105 104 101 104 106 105 108 107 110 97 119 146 133 150 156 155 151 147 169 171 170 165 180 186 173 172 138 160 139 180 161 154 149 147 141 139 142 136 128 130 127 125 115 114
157 156 154 151 155 151 148 149 151 148 148 148 149 150 153 158 157 156 158 157 149 143 142 141 137 134 137 133 131 125 126 126 123 128 123 126 123 125 110 113 97 87 76 106 95 85 99 98 96 111 146 143 133 152 151 153 162 173 177 175 178 167 178 179 192 188 177 166 149 160 173 187 169 163 152 154 151 143 140 135 121 129 131 120 114
158 156 155 159 157 149 149 154 150 150 150 152 153 155 157 160 160 159 154 156 151 146 138 130 128 127 128 128 125 121 130 123 120 112 101 111 114 128 147 126 80 83 63 81 90 100 114 103 114 111 97 129 140 142 159 163 169 176 178 181 179 181 184 184 188 191 191 167 163 192 174 190 184 174 176 167 159 162 147 145 134 142 129 135 140
151 159 161 160 159 155 155 153 156 152 156 156 156 155 160 165 164 158 158 157 157 143 131 125 120 121 128 130 128 133 138 134 133 136 136 147 155 153 117 94 75 59 32 73 78 61 94 111 106 103 106 144 135 142 163 168 170 177 189 193 190 190 193 186 185 194 191 196 164 190 188 188 190 188 180 181 169 175 173 154 143 136 142 144 157
162 163 158 159 157 149 156 155 156 155 158 157 157 159 168 167 166 165 164 156 154 153 140 127 122 129 137 139 145 147 146 153 154 165 184 189 199 183 178 148 101 68 48 330 67 85 56 92 101 109 134 170 173 149 161 171 177 184 191 206 208 203 201 195 191 193 192 191 176 186 196 190 197 188 184 184 179 171 159 179 143 149 157 163 167
166 160 163 161 161 155 158 158 156 159 159 162 163 164 166 167 169 164 167 161 158 160 143 128 132 135 142 148 150 161 173 171 161 169 190 209 209 218 221 195 189 160 47 340 298 159 158 128 133 137 149 170 181 187 177 174 184 189 185 204 208 216 213 211 202 201 193 194 193 182 204 194 198 218 179 212 166 183 186 191 151 169 172 173 180
167 163 161 164 160 155 159 159 160 161 161 166 166 166 165 163 161 169 163 164 164 161 151 135 137 137 148 157 169 174 194 206 193 179 187 213 201 215 221 234 230 219 220 280 291 284 195 185 176 177 166 167 186 194 198 189 187 188 188 193 204 213 212 216 211 206 207 201 200 175 191 197 206 234 183 205 229 163 190 193 168 175 168 176 166
170 163 161 163 160 157 163 162 164 165 165 168 167 165 167 163 161 161 159 164 159 156 160 155 143 157 159 166 183 205 211 214 214 199 217 199 224 233 243 236 236 254 259 280 295 287 297 222 208 211 201 185 189 195 212 204 199 197 205 201 194 209 210 215 211 212 217 210 202 179 188 196 213 197 188 194 193 181 191 195 182 172 176 177 169
173 169 168 166 159 160 166 165 165 166 167 171 167 164 169 163 159 157 164 152 150 155 165 159 163 169 168 170 177 193 202 209 216 229 244 232 241 257 259 264 261 223 246 271 292 288 296 298 298 272 227 218 203 197 218 226 221 201 206 213 206 202 212 213 215 213 216 216 211 204 188 203 213 194 197 189 200 193 200 206 203 172 171 175 170
174 170 169 164 164 165 167 167 169 168 170 166 164 163 168 160 154 151 154 137 140 165 173 183 182 183 174 176 189 192 192 209 228 229 248 256 258 266 273 274 300 245 248 265 264 273 286 298 297 290 301 275 232 221 220 236 236 227 205 214 207 201 204 208 216 214 215 218 219 207 202 197 201 203 202 191 202 205 210 204 210 179 173 171 163
172 169 162 164 166 165 167 168 171 168 169 165 163 163 163 161 152 148 142 148 168 172 186 194 194 189 192 201 202 204 210 230 235 248 237 253 263 261 265 275 294 278 269 258 258 274 277 272 268 272 266 241 241 230 224 238 243 237 228 213 197 200 197 205 216 216 213 214 216 215 214 204 203 192 208 203 204 233 237 218 214 196 176 175 170
165 161 160 164 162 164 165 167 169 168 168 166 159 161 163 159 155 150 153 158 169 181 193 200 205 200 204 201 206 210 221 226 244 239 244 233 236 251 275 303 318 302 268 283 281 272 279 280 281 280 278 276 262 239 221 235 239 234 224 213 207 205 183 211 214 219 218 212 210 216 215 210 207 207 207 209 215 216 243 205 239 202 181 181 189
160 157 163 164 164 163 164 167 168 165 164 163 162 161 160 158 155 155 158 169 179 197 200 201 202 199 204 211 225 241 248 248 244 246 231 230 242 254 255 261 282 253 229 210 236 244 253 268 270 273 277 271 270 268 258 250 250 241 226 210 216 193 189 215 214 217 221 218 209 212 215 213 206 212 216 213 202 217 221 207 206 205 183 181 194
163 157 158 161 164 167 169 165 166 162 163 163 160 157 157 156 153 154 156 172 186 204 203 197 199 207 217 227 229 237 257 263 263 261 272 271 272 278 274 271 256 255 224 234 241 246 246 262 275 270 280 273 271 269 264 261 256 257 240 230 230 190 204 218 220 217 218 226 223 216 211 213 210 207 221 224 216 203 192 196 201 198 194 191 219
165 160 160 160 164 171 168 168 164 161 158 156 153 149 147 148 146 150 156 168 193 204 205 197 214 221 221 239 225 234 247 254 256 259 266 280 277 275 284 279 250 242 264 224 216 215 233 242 243 239 268 285 275 273 273 265 263 257 251 235 241 234 221 228 233 230 223 226 229 229 220 216 211 209 218 225 221 217 180 201 196 189 197 207 204
166 162 161 163 164 169 170 167 159 159 153 152 149 143 142 140 141 145 161 185 197 205 199 210 224 229 240 284 276 269 273 271 264 261 266 279 287 290 295 301 304 292 277 270 264 244 242 256 266 230 232 241 265 272 269 262 258 263 259 255 253 248 245 237 232 225 225 228 226 229 226 220 212 212 216 223 223 223 208 192 188 189 196 205 179
165 161 164 159 163 168 168 161 151 150 149 147 141 137 137 137 136 148 162 186 189 179 173 218 288 305 289 301 286 267 260 253 254 256 260 266 269 282 298 307 306 305 300 282 280 289 282 276 273 278 241 239 257 266 275 281 278 262 262 260 247 235 241 238 233 228 224 224 227 230 230 227 216 209 215 223 221 224 221 216 207 211 199 181 181
165 165 163 167 168 167 168 151 144 144 143 142 142 142 143 144 142 143 157 184 174 164 264 289 297 285 277 265 249 241 236 236 246 252 248 245 247 253 266 277 283 283 286 289 287 284 293 288 280 279 279 255 241 251 255 264 269 261 255 255 252 246 239 239 234 230 228 222 223 226 230 237 225 210 213 220 223 221 222 219 213 204 207 176 177
170 168 167 172 174 170 163 153 146 146 145 148 149 147 144 139 144 155 165 182 180 28 283 274 263 264 260 243 239 238 235 227 229 226 226 230 235 244 246 247 247 252 261 266 270 280 288 284 278 269 283 286 265 237 251 259 260 253 235 246 247 244 245 239 239 233 222 219 218 219 217 236 232 220 210 219 220 221 223 218 216 211 208 198 183
171 171 171 167 173 170 166 153 147 154 153 153 149 149 153 158 154 161 162 159 172 207 214 218 262 269 251 239 238 241 235 228 227 227 229 226 236 242 247 248 241 248 257 274 279 277 268 270 274 271 251 262 269 220 213 164 241 260 266 252 245 243 241 237 237 238 234 220 216 216 220 229 233 227 217 217 223 223 222 220 218 213 208 207 201
171 172 167 162 169 170 165 153 152 158 160 157 155 152 153 150 148 148 157 150 181 200 265 343 295 270 251 247 248 252 245 234 228 229 234 233 237 245 250 246 247 251 254 252 252 258 261 267 269 266 262 227 241 216 218 210 264 255 260 280 265 268 223 227 236 239 235 229 215 219 220 219 226 228 217 215 220 222 222 222 219 216 209 207 204
168 168 167 167 169 170 165 158 156 159 159 159 152 146 148 146 146 146 161 182 108 170 239 261 264 257 249 243 252 250 244 247 233 228 231 233 233 238 251 252 250 245 256 261 259 259 254 254 249 250 253 267 239 223 208 200 226 214 247 219 268 272 283 235 234 240 233 232 220 223 222 223 220 222 218 218 218 220 221 221 218 216 210 208 206
165 167 171 172 172 171 165 160 159 164 158 155 150 144 147 146 139 131 162 198 190 183 195 203 211 234 259 237 233 241 247 242 241 235 237 239 236 241 251 254 255 251 247 253 260 262 265 269 265 258 249 252 260 235 206 205 206 219 257 264 245 241 251 281 250 246 207 228 224 218 219 217 215 212 216 222 221 220 221 218 218 214 210 207 204
164 170 170 166 167 163 163 160 165 164 160 157 151 149 149 147 149 159 167 184 192 191 205 206 190 210 230 343 2 314 300 263 245 246 248 253 261 257 254 261 263 264 260 258 261 264 261 256 260 268 273 270 270 274 264 210 222 224 234 242 266 286 296 289 262 274 166 233 233 225 221 216 213 213 216 221 215 218 220 218 213 212 210 208 204
163 157 156 153 154 164 174 169 167 159 164 156 156 155 150 165 176 178 182 187 208 178 150 164 180 143 201 317 5 326 313 292 270 262 261 261 263 262 259 254 253 254 248 252 260 266 270 279 284 263 257 256 254 258 262 256 218 236 239 240 245 245 251 261 259 271 270 200 220 222 222 219 217 216 218 219 221 218 208 218 212 212 211 208 205
137 141 140 138 158 170 174 172 164 158 166 159 162 161 165 176 182 183 186 196 197 153 150 133 118 130 165 202 234 270 270 239 272 266 268 241 238 241 243 240 236 244 246 243 247 253 257 264 268 276 279 273 268 262 260 258 247 242 211 234 237 237 233 238 249 260 270 277 247 213 229 218 216 218 209 205 206 211 195 210 214 212 212 209 206
132 135 139 146 162 163 168 162 159 162 159 163 162 165 166 161 159 145 148 141 149 123 117 134 156 180 186 161 170 111 137 232 321 304 273 257 232 245 244 242 246 253 254 258 254 259 264 267 270 269 267 266 261 263 263 256 253 251 224 223 231 235 231 234 244 235 241 252 260 241 230 211 224 223 218 212 202 201 198 200 211 215 208 209 206
114 121 120 120 134 122 128 136 140 138 129 135 144 138 133 136 139 148 152 151 156 142 167 151 155 179 141 102 106 75 48 49 24 336 343 315 299 279 264 268 265 274 274 275 279 274 276 276 274 272 268 266 261 252 254 258 254 256 244 250 236 228 230 237 233 228 226 235 255 245 214 212 223 217 215 218 205 203 202 187 190 199 212 210 208
36 119 137 140 133 140 140 121 119 117 112 117 130 128 136 148 145 152 152 148 153 150 144 125 104 103 68 68 53 59 70 55 49 43 39 11 338 311 300 293 285 276 272 278 286 287 285 278 271 265 262 263 268 272 262 260 262 257 249 241 247 253 240 236 231 218 224 229 229 243 242 216 226 240 216 217 213 219 206 195 189 184 203 212 210